Location: Poprad
(0.0000°N, 20.3000°E)
Time: 05:52:01
(UTC+02:00)

Daily predictions for brighter satellites

Satellite Brightness Start Highest point End
(mag) Time Altitude Azimuth Time Altitude Azimuth Time Altitude Azimuth
Ariane H10+ 4.3 03:45:33 73° NW 03:46:56 77° N 03:55:21 10° ENE
ALOS 4.5 04:16:52 10° NE 04:20:17 20° ESE 04:21:11 19° ESE
Cosmos 1844 Rocket 4.2 04:29:33 27° N 04:29:33 27° N 04:32:00 10° N
Intelsat 5-1 Rocket 4.4 04:30:02 49° WNW 04:32:28 58° NNW 04:57:02 10° ENE
Centaur Rocket 4.0 04:39:54 52° ESE 04:39:54 52° ESE 04:47:05 10° ENE
Cosmos 883 Rocket 4.3 04:50:41 56° SSW 04:52:06 84° W 04:58:15 10° N
Ariane H10+ 3.2 04:55:09 67° W 04:56:06 86° S 05:03:53 10° E
Meteor 1-31 Rocket 3.6 04:52:26 10° NNE 04:55:17 46° NE 04:55:17 46° NE
Cosmos 1607 3.8 04:51:29 10° NNW 04:57:51 69° WSW 05:04:11 10° SSE
Cosmos 1484 Rocket 3.7 04:56:45 10° NNE 04:59:12 40° NNE 04:59:12 40° NNE
Ariane H10 3.8 05:03:14 38° SSE 05:03:14 38° SSE 05:05:45 10° ESE
Lacrosse 5 rocket 2.7 05:02:00 30° SSE 05:03:17 37° ESE 05:07:25 10° NE
ARIANE 5 DEB (SYLDA) 4.0 05:01:29 42° W 05:04:20 76° N 05:09:03 10° E
SL-08 ROCKET BODY 4.5 04:58:56 10° N 05:04:50 75° E 05:10:42 10° S
Meteor 2-15 Rocket 4.4 05:06:05 50° WSW 05:07:01 55° W 05:12:54 10° N
DELTA 2 R/B (1) 3.5 05:06:42 55° SW 05:08:00 88° SE 05:13:37 10° NE
ARIANE 5 R/B 3.8 05:09:19 20° E 05:09:19 20° E 05:10:06 10° E
CZ-4B R/B 3.3 05:05:23 10° SE 05:08:29 31° E 05:11:30 10° NNE
ARIANE 5 DEB (SYLDA) 2.7 05:09:04 79° NW 05:09:11 81° N 05:14:46 10° E
SEDSat Delta rocket 4.4 05:09:17 34° SSW 05:12:07 58° SSE 05:18:47 10° ENE
Cosmos 1943 4.0 05:07:01 10° N 05:12:26 51° ENE 05:17:54 10° SSE
Cosmos 1745 Rocket 3.9 05:11:29 10° N 05:17:40 86° W 05:23:49 10° S
ASC 2 Rocket 3.6 05:16:11 29° NW 05:17:58 52° NNE 05:22:38 10° ESE
ARIANE 5 R/B 3.0 05:16:49 22° W 05:25:21 87° N 05:28:48 10° E
SJ-12 3.7 05:25:27 10° N 05:29:29 82° WNW 05:32:53 14° SSW
Cosmos 1812 Rocket 3.5 05:29:55 10° S 05:34:16 87° E 05:38:35 10° N
Meteor 2-10 Rocket 3.4 05:29:55 10° S 05:34:55 88° E 05:39:58 10° N
Meteor 1-11 4.1 05:30:26 10° NNW 05:36:01 64° W 05:41:34 10° S
SAR-Lupe-4 3.4 05:36:56 10° S 05:40:27 66° WSW 05:43:58 10° NNW
Cosmos 1689 Rocket 3.8 05:39:12 10° SSE 05:41:56 35° E 05:44:37 10° N
GPS 2-14 Rocket1 3.1 05:42:49 23° SW 05:44:47 47° SSE 05:48:26 10° E
FENGYUN 3A 4.4 05:41:05 10° NNW 05:45:45 31° WNW 05:49:27 15° SW
SPELTRA 3.5 05:46:28 19° SW 05:48:41 31° S 05:51:52 10° ESE
Cosmos 2278 Rocket 2.1 05:45:01 10° SSW 05:50:39 70° WNW 05:56:17 10° N
Cosmos 724 4.3 05:46:04 10° NNW 05:52:11 72° WSW 05:58:21 10° SSE
ADEOS Rocket 3.5 05:46:22 10° SSE 05:53:12 88° ENE 06:00:42 10° NNW
SWIFT 3.0 05:52:30 17° W 05:55:20 43° NNW 05:59:19 10° NE
SAR-Lupe-1 4.5 05:52:24 10° S 05:55:46 38° WSW 05:59:07 10° NNW
GPS 2-04 Rocket1 3.7 05:54:00 11° SSW 05:57:14 36° SE 06:00:43 10° ENE
ALOS 3.6 05:54:09 10° NNW 05:57:25 19° WNW 05:59:41 14° WSW
Cosmos 1455 2.5 05:54:07 10° SSW 05:57:45 43° W 06:01:24 10° NNW
Cosmos 1709 Rocket 3.9 05:52:17 10° N 05:58:20 71° W 06:04:25 10° S
NOSS 3-4 (A) 3.3 05:52:40 10° SSW 05:58:47 75° WNW 06:04:38 10° NNE
NOSS 3-4 (C) 3.3 05:52:48 10° SSW 05:58:55 77° WNW 06:04:47 10° NNE
CZ-4B R/B 4.2 05:58:46 10° NNW 06:02:13 23° WNW 06:05:36 10° SW
ERBS 3.1 06:01:08 10° WNW 06:03:59 27° WSW 06:06:52 10° S
H-2A R/B 2.6 06:00:51 10° N 06:04:29 44° WNW 06:08:13 10° SSW
Sylda 5 2.4 06:00:30 12° W 06:04:47 59° N 06:08:20 10° ENE
ASTEX 1 3.7 06:02:39 10° NNW 06:07:17 44° W 06:11:57 10° SSW
PSLV R/B 4.3 06:03:23 10° SSE 06:07:35 73° E 06:11:44 10° N
Nadezhda 1 Rocket 4.1 06:04:01 10° S 06:10:23 88° W 06:16:47 10° N
CZ-3 R/B 4.3 06:03:30 11° WSW 06:15:56 17° SW 06:22:24 10° S
Cosmos 494 Rocket 4.0 06:13:25 10° NNW 06:18:33 70° WSW 06:23:46 10° S
ASTRO E2 2.7 06:14:45 10° WSW 06:18:43 77° NNW 06:22:38 10° NE
ATLAS 2AS CENTAUR R/B 3.1 06:14:52 10° SW 06:22:07 57° WNW 06:29:50 10° N
